FW5176 Weather Reports


Display with metric or nautical units.
time (UTC)temp
F
wind
direction
speed
MPH
gust
MPH
rain 1hr
in
rain 24hr
in
rain mn
in
humidity
%
barometer
mb
20260509201508 48 359 0.0 4.0 0.00 0.59 0.51 100 1010.2
20260509200008 48 359 1.0 4.0 0.01 0.60 0.51 100 1010.2
20260509194507 48 359 0.0 4.0 0.02 0.60 0.51 100 1010.1
20260509191502 48 359 0.0 1.0 0.06 0.60 0.51 100 1010.4
20260509190001 48 359 0.0 3.0 0.09 0.59 0.50 99 1010.6
20260509184602 47 359 0.0 2.0 0.09 0.59 0.50 99 1010.5
20260509183201 47 359 0.0 2.0 0.11 0.57 0.49 100 1010.6
20260509181558 47 359 0.0 3.0 0.10 0.56 0.47 99 1010.7
20260509180056 47 359 0.0 2.0 0.06 0.50 0.41 99 1010.7
20260509174619 47 359 0.0 2.0 0.08 0.50 0.41 99 1010.6
20260509173157 46 359 0.0 2.0 0.07 0.48 0.39 99 1010.6
20260509171557 46 359 0.0 4.0 0.05 0.46 0.37 99 1010.6
20260509170155 46 359 0.0 2.0 0.03 0.44 0.35 99 1010.4
20260509164553 46 359 0.0 1.0 0.02 0.42 0.33 99 1010.4
20260509163056 46 359 0.0 2.0 0.01 0.41 0.32 99 1010.5
20260509161557 45 359 0.0 2.0 0.01 0.41 0.32 99 1010.6
20260509160057 45 359 0.0 2.0 0.01 0.41 0.32 99 1010.7
20260509154555 45 359 0.0 2.0 0.01 0.40 0.31 99 1010.7
20260509153154 45 359 0.0 3.0 0.01 0.40 0.31 99 1010.9
20260509151553 45 359 0.0 1.0 0.01 0.40 0.31 99 1011.0
20260509150050 45 359 0.0 3.0 0.02 0.40 0.31 99 1011.1
20260509144550 45 359 0.0 3.0 0.01 0.39 0.30 99 1011.0
20260509143050 45 359 0.0 2.0 0.02 0.39 0.30 99 1011.0
20260509141545 45 359 0.0 1.0 0.02 0.39 0.30 99 1011.0
20260509140043 45 359 0.0 2.0 0.02 0.38 0.28 99 1011.2
20260509134542 45 359 0.0 4.0 0.03 0.38 0.28 99 1011.2
20260509133142 45 359 0.0 3.0 0.02 0.37 0.28 99 1011.4
20260509131547 45 359 0.0 3.0 0.03 0.37 0.28 99 1011.5
20260509130056 44 359 0.0 2.0 0.02 0.36 0.27 99 1011.6
20260509124552 44 359 0.0 3.0 0.01 0.35 0.26 99 1011.6
20260509123046 44 359 0.0 3.0 0.02 0.35 0.26 99 1011.5
20260509121539 44 359 0.0 2.0 0.01 0.34 0.25 99 1011.6
20260509120040 44 359 0.0 2.0 0.02 0.34 0.25 99 1011.8
20260509114540 44 359 0.0 2.0 0.04 0.34 0.25 99 1011.8
20260509113042 44 359 0.0 2.0 0.04 0.33 0.24 99 1011.8
20260509111538 43 359 0.0 2.0 0.05 0.33 0.24 99 1011.9
20260509110037 43 359 0.0 3.0 0.05 0.32 0.23 99 1012.1
20260509104536 43 359 0.0 1.0 0.04 0.31 0.22 99 1012.1
20260509103043 43 359 0.0 1.0 0.03 0.28 0.20 99 1012.2
20260509101557 43 359 0.0 1.0 0.04 0.28 0.19 99 1012.1
20260509100040 43 359 0.0 1.0 0.04 0.27 0.18 99 1012.0
20260509094542 43 359 0.0 1.0 0.04 0.27 0.18 99 1012.0
20260509093138 43 359 0.0 1.0 0.03 0.26 0.17 99 1012.0
20260509091531 43 359 0.0 1.0 0.02 0.25 0.16 98 1012.2
20260509090037 43 359 0.0 2.0 0.00 0.23 0.14 98 1012.3
20260509084531 43 359 0.0 2.0 0.00 0.23 0.14 98 1012.3
20260509083130 43 359 0.0 2.0 0.01 0.23 0.14 98 1012.3
20260509081531 43 359 0.0 2.0 0.01 0.23 0.14 98 1012.5
20260509080031 43 359 0.0 2.0 0.01 0.23 0.14 98 1012.4
20260509074530 43 359 0.0 2.0 0.02 0.23 0.14 98 1012.4
20260509073128 43 359 0.0 1.0 0.03 0.23 0.14 97 1012.7
20260509071534 43 359 0.0 1.0 0.02 0.22 0.13 97 1012.7
20260509070024 43 359 0.0 0.0 0.03 0.22 0.13 97 1012.8
20260509064523 43 359 0.0 1.0 0.03 0.21 0.12 96 1013.1
20260509063122 43 359 0.0 0.0 0.03 0.20 0.11 96 1013.4
20260509061524 43 359 0.0 1.0 0.04 0.20 0.11 96 1013.7
20260509060021 43 359 0.0 0.0 0.04 0.19 0.10 96 1013.7
20260509054519 43 359 0.0 1.0 0.06 0.19 0.10 96 1013.9
20260509053138 43 359 0.0 1.0 0.06 0.17 0.08 95 1013.9
20260509051515 43 359 0.0 1.0 0.06 0.16 0.07 95 1014.1
20260509050019 44 359 0.0 2.0 0.07 0.15 0.06 95 1014.0
20260509044512 44 359 0.0 3.0 0.07 0.14 0.05 96 1014.4
20260509043141 44 359 0.0 1.0 0.05 0.12 0.03 96 1014.3
20260509041506 44 359 0.0 1.0 0.04 0.10 0.01 96 1014.2
20260509040008 44 359 0.0 1.0 0.05 0.10 0.09 96 1014.1
20260509034504 44 359 0.0 2.0 0.04 0.08 0.07 95 1014.2
20260509033106 44 359 0.0 1.0 0.04 0.08 0.07 95 1014.0
20260509031508 45 359 0.0 1.0 0.03 0.07 0.06 95 1014.5
20260509030007 45 359 0.0 3.0 0.02 0.14 0.05 95 1014.5
20260509024510 45 359 0.0 1.0 0.00 0.12 0.03 95 1014.5
20260509023108 45 359 0.0 3.0 0.02 0.12 0.03 94 1014.6
20260509021504 45 359 0.0 2.0 0.02 0.12 0.03 94 1014.5
20260509020003 45 359 0.0 2.0 0.02 0.15 0.03 93 1014.2
20260509014502 45 359 0.0 1.0 0.02 0.15 0.03 93 1014.0
20260509013103 45 359 0.0 4.0 0.01 0.14 0.02 93 1013.8
20260509011509 45 359 0.0 1.0 0.00 0.13 0.01 93 1014.0
20260509010008 45 359 0.0 1.0 0.00 0.13 0.01 92 1013.8
20260509004507 45 359 0.0 0.0 0.00 0.13 0.01 91 1013.4
20260509003011 45 359 0.0 0.0 0.00 0.13 0.01 89 1013.2
20260509001509 46 359 0.0 1.0 0.00 0.13 0.01 88 1013.2
20260509000005 46 359 0.0 1.0 0.00 0.13 0.01 88 1013.3
20260508234504 47 359 0.0 2.0 0.00 0.13 0.01 86 1013.1
20260508233105 47 359 0.0 2.0 0.00 0.13 0.01 85 1012.8
20260508231600 47 359 0.0 1.0 0.00 0.13 0.01 85 1012.4
20260508224642 51 155 0.0 6.0 0.00 0.13 0.01 74 1012.6
20260508223059 52 54 0.0 3.0 0.00 0.13 0.01 72 1012.6
20260508221601 51 61 0.0 3.0 0.00 0.13 0.01 72 1012.6
20260508220058 51 38 0.0 1.0 0.00 0.13 0.01 74 1012.7
20260508214600 51 48 0.0 1.0 0.00 0.13 0.01 74 1012.7
20260508213058 51 47 0.0 2.0 0.00 0.13 0.01 73 1012.6
20260508211501 51 61 0.0 2.0 0.00 0.13 0.01 74 1012.7
20260508210101 52 324 0.0 0.0 0.00 0.13 0.01 68 1012.7
20260508204559 52 17 0.0 2.0 0.00 0.13 0.01 67 1012.7
20260508203107 51 99 0.0 2.0 0.01 0.13 0.01 74 1012.9